Flag for U.S.A. Weather past 2 weeks in Spartanburg, South Carolina, U.S.A.

Now
77 °F

Scattered clouds.


Feels Like: 78 °F
Forecast: 72 / 86 °F
Wind: No wind

Location: Spartanburg Memorial

Current Time: Jul 23, 2014 at 10:07:00 PM

Latest Report: Jul 23, 2014 at 9:35 PM


Visibility: 10 mi

Pressure: 29.98 "Hg

Humidity: 89%

Dew point: 73 °F

Location of SpartanburgLocation

Historic Weather in Spartanburg — Graph

°F

Spartanburg temperature yesterday

Maximum temperature yesterday: 79 °F (at 12:55 PM)
Minimum temperature yesterday: 72 °F (at 2:55 AM)
Average temperature yesterday: 73 °F

Past Weeks' High & Low Weather Summary

 TemperatureHumidityPressure
High95 °F (Jul 14, 1:35 PM)100% (Jul 9, 10:55 PM)30.24 "Hg (Jul 9, 10:55 PM)
Low64 °F (Jul 17, 5:15 AM)36% (Jul 12, 3:55 PM)29.78 "Hg (Jul 15, 3:35 PM)
Average77 °F80%30.07 "Hg
* Reported Jul 8 8:15 PM — Jul 23 8:55 PM, Spartanburg, Weather by CustomWeather, © 2014

Note: Actual official high and low records may vary slightly from our data, if they occured in-between our weather recording intervals... More about our weather records

Advertising

Spartanburg weather history for previous 24 hours

 ConditionsComfort  
Time TempWeatherWind HumidityBarometerVisibility
8:55 PM
Jul 23
79 °FSunny.No wind79%29.98 "Hg10 mi
8:35 PM79 °FSunny.No wind79%29.98 "Hg10 mi
8:15 PM79 °FSunny.No wind79%29.98 "Hg10 mi
7:55 PM81 °FSunny.5 mph70%29.99 "Hg10 mi
7:35 PM81 °FSunny.8 mph70%29.99 "Hg10 mi
7:15 PM82 °FSunny.9 mph70%29.99 "Hg10 mi
6:55 PM84 °FSunny.8 mph66%29.99 "Hg10 mi
6:35 PM86 °FSunny.8 mph62%29.97 "Hg10 mi
6:15 PM88 °FSunny.5 mph59%29.98 "Hg10 mi
5:55 PM90 °FScattered clouds.8 mph52%29.98 "Hg10 mi
5:35 PM90 °FScattered clouds.8 mph55%29.98 "Hg10 mi
5:15 PM91 °FScattered clouds.9 mph52%29.97 "Hg10 mi
4:55 PM91 °FSunny.6 mph49%29.99 "Hg10 mi
4:35 PM90 °FScattered clouds.7 mph52%30.00 "Hg7 mi
4:15 PM91 °FScattered clouds.6 mph49%30.00 "Hg10 mi
3:55 PM90 °FScattered clouds.3 mph55%30.00 "Hg10 mi
3:15 PM91 °FSunny.8 mph52%30.01 "Hg10 mi
2:55 PM90 °FScattered clouds.6 mph52%30.02 "Hg10 mi
2:35 PM90 °FScattered clouds.No wind52%30.03 "Hg10 mi
2:15 PM90 °FScattered clouds.3 mph52%30.04 "Hg7 mi
1:55 PM90 °FScattered clouds.3 mph55%30.05 "Hg10 mi
1:35 PM88 °FScattered clouds.6 mph59%30.05 "Hg7 mi
1:15 PM88 °FSunny.3 mph59%30.06 "Hg10 mi
12:55 PM86 °FScattered clouds.No wind62%30.07 "Hg10 mi
12:35 PM86 °FScattered clouds.6 mph62%30.07 "Hg10 mi
12:15 PM86 °FSunny.No wind62%30.08 "Hg7 mi
11:55 AM86 °FSunny.5 mph62%30.09 "Hg10 mi
11:35 AM84 °FSunny.3 mph66%30.09 "Hg7 mi
11:15 AM82 °FScattered clouds.5 mph74%30.10 "Hg7 mi
10:55 AM82 °FSunny.5 mph74%30.10 "Hg7 mi
10:35 AM81 °FSunny.3 mph79%30.10 "Hg10 mi
9:55 AM81 °FScattered clouds.3 mph79%30.11 "Hg7 mi
9:35 AM81 °FScattered clouds.No wind84%30.11 "Hg7 mi
9:15 AM79 °FSunny.No wind89%30.11 "Hg7 mi
12:15 AM73 °FClear.No wind100%30.13 "Hg10 mi
11:55 PM
Jul 22
73 °FClear.No wind100%30.13 "Hg7 mi
11:35 PM73 °FClear.No wind100%30.14 "Hg10 mi
11:15 PM73 °FClear.No wind100%30.14 "Hg10 mi
10:55 PM73 °FClear.No wind100%30.14 "Hg10 mi
10:35 PM73 °FClear.No wind100%30.14 "Hg10 mi
10:15 PM73 °FClear.No wind100%30.13 "Hg10 mi
Weather by CustomWeather, © 2014

See weather overviewHow to use our weather pages